COSMOS 249 DEB, 3609

Orbit data source: Space-Track

COSMOS 249 DEB, 3609 is space debris in LEO originally from a launch on Sun, 20 Oct 1968 UTC launched from the Tyuratam Missile And Space Complex (TTMTR). Debris objects in space refer to the collection of defunct objects orbiting the Earth. Examples of debris include non-operational satellites, rocket bodies, and fragments generated from explosions, collisions, or faulty payload assembly.

Loading next visibility...
Identifier
3609, 1968-091AB
Orbit
LEO
Country
Flag of CISCIS
Related business
Manufacturer
Unknown
Mission
Spacecraft
Bus & Motor
Unknown
Mass
Unknown
Launch date (UTC)
1968-10-20 (58 years ago)
Launch vehicle
Unknown
Launch site
Tyuratam Missile And Space Complex (TTMTR)
Object type
Payload
Rocket body
Debris
Shape & HBR
Unknown shape, 0.1 m
Radar Cross Section
Medium (>0.1 m² and <1 m²)

Expand to show TLE details & history
Last TLE update: 13 hours ago

TLE from 13 hours ago
0 COSMOS 249 DEB
1 03609U 68091AB  26207.05324291  .00003479  00000-0  63057-3 0  9992
2 03609  62.2733  44.0227 0731018 144.1351 221.1117 13.66348007710204
Epoch: 2026-07-26T01:16Z
TLE epoch observation values (Epoch: 2026-07-26T01:16:40.187Z)
Latitude
0.00001°
Longitude
81.09856°
Altitude
1,437.268 km
Speed
6.936 km/s
True Right ascension
02h 56m 05s
True Declination
0° 00' 00"
Sunlit
Object was in daylight at epoch
Visualization orbit readout
Latitude
Unknown
Longitude
Unknown
Altitude
Unknown
Speed
Unknown
Apparent Right ascension
Unknown
Apparent Declination
Unknown
Sunlit
N/A
Visualization observer readout
Local Sidereal Time
03:28:25
Azimuth
Unknown
Elevation
Unknown
Doppler factor
Unknown
Orbital elements
Apogee altitude
1,551.871 km
Perigee altitude
471.455 km
Semi-major axis
7,389.8 km
Eccentricity
0.0731
Inclination
62.2733°
RAAN
44.0227°
Arg. of periapsis
144.1351°
True anomaly
215.96614°
Mean anomaly
221.1117°
Eccentric anomaly
218.50411°
Mean motion
3.4166 °/min
Orbital period
105.37 mins
BSTAR
0.00063057
Loading maneuver chart data...
Computing Atmospheric mass density...

Documentation

Showing up to 5 results
|